This is the latest recevied weather packets stored in our database for station/object DB0LC-2. If no packets are shown the sender has not sent any weather packets the latest 10 day(s).
| Time | Temp. | Humidity | Pressure | Rain* | Wind** | Luminosity | Snow |
|---|---|---|---|---|---|---|---|
| 1777724406 | 19.44° C | 27% | 917.4 hPa | 0 mm | - | - | - |
| 1777723793 | 20° C | 28% | 917.6 hPa | 0 mm | - | - | - |
| 1777723180 | 19.44° C | 28% | 917.6 hPa | 0 mm | - | - | - |
| 1777723178 | 19.44° C | 28% | 917.7 hPa | 0 mm | - | - | - |
| 1777722585 | 19.44° C | 27% | 917.8 hPa | 0 mm | - | - | - |
| 1777721375 | 19.44° C | 28% | 918 hPa | 0 mm | - | - | - |
| 1777720763 | 19.44° C | 28% | 918.1 hPa | 0 mm | - | - | - |
| 1777719564 | 19.44° C | 28% | 918.3 hPa | 0 mm | - | - | - |
| 1777718951 | 19.44° C | 28% | 918.3 hPa | 0 mm | - | - | - |
| 1777718341 | 20° C | 26% | 918.4 hPa | 0 mm | - | - | - |
| 1777717728 | 20° C | 28% | 918.5 hPa | 0 mm | - | - | - |
| 1777717727 | 20° C | 28% | 918.6 hPa | 0 mm | - | - | - |
| 1777716531 | 18.89° C | 28% | 918.7 hPa | 0 mm | - | - | - |
| 1777715918 | 20° C | 28% | 918.8 hPa | 0 mm | - | - | - |
| 1777715916 | 20° C | 28% | 918.7 hPa | 0 mm | - | - | - |
| 1777715317 | 19.44° C | 28% | 918.9 hPa | 0 mm | - | - | - |
| 1777714715 | 19.44° C | 28% | 918.9 hPa | 0 mm | - | - | - |
| 1777714116 | 19.44° C | 26% | 919 hPa | 0 mm | - | - | - |
| 1777712207 | 18.89° C | 27% | 919 hPa | 0 mm | - | - | - |
| 1777710377 | 19.44° C | 27% | 919 hPa | 0 mm | - | - | - |
| 1777709759 | 19.44° C | 26% | 919.2 hPa | 0 mm | - | - | - |
| 1777708512 | 19.44° C | 27% | 919.1 hPa | 0 mm | - | - | - |
| 1777708511 | 19.44° C | 27% | 919.1 hPa | 0 mm | - | - | - |
| 1777708510 | 19.44° C | 27% | 919.2 hPa | 0 mm | - | - | - |
| 1777707908 | 18.89° C | 27% | 919.1 hPa | 0 mm | - | - | - |
* Rain latest hour (hover to see other rain measurements)
** Current wind speed in m/s (hover to see current wind gust speed)